EN

Hourly Weather Lago Enriquillo

Today, 25 July, Sunday

Time Temperature Precipitation Wind Pressure Humidity
00:00 +25°C° 0.1 mm 0 mps 765 mmHg 79%
01:00 +25°C° 0.1 mm 0 mps 765 mmHg 80%
02:00 +25°C° 0 mm 0 mps 765 mmHg 81%
03:00 +25°C° 0 mm 0 mps 764 mmHg 82%
04:00 +24°C° 0 mm 0 mps 764 mmHg 84%
05:00 +25°C° 0 mm 0 mps 765 mmHg 82%
06:00 +28°C° 0 mm 1 mps 765 mmHg 80%
07:00 +29°C° 0 mm 1 mps 765 mmHg 78%
08:00 +31°C° 0 mm 1 mps 765 mmHg 71%
09:00 +32°C° 0 mm 2 mps 765 mmHg 65%
10:00 +35°C° 0 mm 2 mps 765 mmHg 58%
11:00 +36°C° 0.5 mm 2 mps 764 mmHg 55%
12:00 +37°C° 0.5 mm 3 mps 764 mmHg 52%
13:00 +37°C° 0.5 mm 3 mps 764 mmHg 49%
14:00 +37°C° 0.8 mm 3 mps 764 mmHg 53%
15:00 +36°C° 0.8 mm 3 mps 763 mmHg 57%
16:00 +35°C° 0.8 mm 3 mps 763 mmHg 60%
17:00 +33°C° 1.6 mm 3 mps 764 mmHg 68%
18:00 +30°C° 1.6 mm 2 mps 764 mmHg 76%
19:00 +29°C° 1.6 mm 2 mps 765 mmHg 84%
20:00 +28°C° 0.4 mm 1 mps 765 mmHg 86%
21:00 +28°C° 0.4 mm 1 mps 766 mmHg 87%
22:00 +28°C° 0.4 mm 1 mps 766 mmHg 89%
23:00 +28°C° 0 mm 1 mps 766 mmHg 90%

Tomorrow, 26 July, Monday

Time Temperature Precipitation Wind Pressure Humidity
00:00 +27°C° 0 mm 1 mps 766 mmHg 91%
01:00 +27°C° 0 mm 1 mps 765 mmHg 92%
02:00 +27°C° 0 mm 1 mps 765 mmHg 92%
03:00 +27°C° 0 mm 1 mps 765 mmHg 92%
04:00 +27°C° 0 mm 1 mps 765 mmHg 92%
05:00 +27°C° 0 mm 1 mps 765 mmHg 90%
06:00 +28°C° 0 mm 1 mps 766 mmHg 87%
07:00 +29°C° 0 mm 2 mps 766 mmHg 84%
08:00 +31°C° 0 mm 2 mps 766 mmHg 74%
09:00 +34°C° 0 mm 2 mps 766 mmHg 64%
10:00 +35°C° 0 mm 3 mps 766 mmHg 54%
11:00 +36°C° 0.1 mm 3 mps 765 mmHg 51%
12:00 +37°C° 0.1 mm 4 mps 765 mmHg 48%
13:00 +38°C° 0.1 mm 4 mps 764 mmHg 44%
14:00 +37°C° 0.3 mm 4 mps 764 mmHg 47%
15:00 +37°C° 0.3 mm 4 mps 764 mmHg 50%
16:00 +36°C° 0.3 mm 4 mps 764 mmHg 53%
17:00 +34°C° 0.7 mm 3 mps 765 mmHg 62%
18:00 +31°C° 0.7 mm 3 mps 765 mmHg 72%
19:00 +29°C° 0.7 mm 2 mps 766 mmHg 81%
20:00 +29°C° 1.1 mm 2 mps 767 mmHg 83%
21:00 +29°C° 1.1 mm 1 mps 767 mmHg 85%
22:00 +28°C° 1.1 mm 1 mps 768 mmHg 87%
23:00 +28°C° 0 mm 1 mps 767 mmHg 86%

Day after tomorrow, 27 July, Tuesday

Time Temperature Precipitation Wind Pressure Humidity
00:00 +28°C° 0 mm 1 mps 767 mmHg 86%
01:00 +28°C° 0 mm 1 mps 766 mmHg 86%
02:00 +28°C° 0 mm 1 mps 766 mmHg 86%
03:00 +28°C° 0 mm 1 mps 766 mmHg 85%
04:00 +28°C° 0 mm 1 mps 766 mmHg 85%
05:00 +28°C° 0 mm 1 mps 766 mmHg 83%
06:00 +29°C° 0 mm 1 mps 766 mmHg 81%
07:00 +30°C° 0 mm 1 mps 766 mmHg 78%
08:00 +31°C° 0 mm 1 mps 766 mmHg 70%
09:00 +34°C° 0 mm 2 mps 766 mmHg 62%
10:00 +36°C° 0 mm 2 mps 766 mmHg 54%
11:00 +37°C° 0 mm 2 mps 766 mmHg 49%
12:00 +38°C° 0 mm 3 mps 765 mmHg 43%
13:00 +39°C° 0 mm 3 mps 765 mmHg 38%
14:00 +39°C° 0.1 mm 3 mps 764 mmHg 41%
15:00 +38°C° 0.1 mm 3 mps 764 mmHg 44%
16:00 +38°C° 0.1 mm 3 mps 764 mmHg 47%
17:00 +35°C° 0.6 mm 3 mps 764 mmHg 58%
18:00 +32°C° 0.6 mm 2 mps 765 mmHg 70%
19:00 +29°C° 0.6 mm 1 mps 766 mmHg 81%
20:00 +29°C° 0.1 mm 1 mps 766 mmHg 84%
21:00 +28°C° 0.1 mm 1 mps 766 mmHg 87%
22:00 +26°C° 0.1 mm 0 mps 767 mmHg 89%
23:00 +26°C° 0 mm 0 mps 766 mmHg 89%

28 July, Wednesday

Time Temperature Precipitation Wind Pressure Humidity
00:00 +26°C° 0 mm 0 mps 766 mmHg 89%
01:00 +25°C° 0 mm 0 mps 765 mmHg 88%
02:00 +25°C° 0 mm 0 mps 765 mmHg 89%
03:00 +25°C° 0 mm 0 mps 765 mmHg 90%
04:00 +25°C° 0 mm 0 mps 765 mmHg 91%
05:00 +26°C° 0 mm 0 mps 765 mmHg 87%
06:00 +26°C° 0 mm 0 mps 766 mmHg 84%
07:00 +27°C° 0 mm 0 mps 766 mmHg 81%
08:00 +31°C° 0 mm 1 mps 766 mmHg 70%
09:00 +33°C° 0 mm 1 mps 766 mmHg 59%
10:00 +36°C° 0 mm 2 mps 765 mmHg 48%
11:00 +37°C° 0 mm 2 mps 765 mmHg 44%
12:00 +38°C° 0 mm 3 mps 764 mmHg 40%
13:00 +39°C° 0 mm 3 mps 764 mmHg 36%
14:00 +38°C° 0.1 mm 4 mps 764 mmHg 39%
15:00 +37°C° 0.1 mm 4 mps 763 mmHg 43%
16:00 +36°C° 0.1 mm 4 mps 763 mmHg 46%
17:00 +34°C° 0.4 mm 3 mps 764 mmHg 57%
18:00 +31°C° 0.4 mm 3 mps 764 mmHg 68%
19:00 +29°C° 0.4 mm 2 mps 765 mmHg 78%
20:00 +28°C° 0.4 mm 2 mps 765 mmHg 82%
21:00 +28°C° 0.4 mm 2 mps 766 mmHg 85%
22:00 +27°C° 0.4 mm 2 mps 766 mmHg 89%
23:00 +27°C° 0 mm 1 mps 766 mmHg 90%

29 July, Thursday

Time Temperature Precipitation Wind Pressure Humidity
00:00 +27°C° 0 mm 1 mps 766 mmHg 90%
01:00 +27°C° 0 mm 1 mps 765 mmHg 91%
02:00 +27°C° 0 mm 1 mps 765 mmHg 91%
03:00 +26°C° 0 mm 1 mps 765 mmHg 91%
04:00 +26°C° 0 mm 1 mps 765 mmHg 91%
05:00 +27°C° 0 mm 1 mps 765 mmHg 87%
06:00 +28°C° 0 mm 2 mps 766 mmHg 84%
07:00 +28°C° 0 mm 2 mps 766 mmHg 80%
08:00 +30°C° 0 mm 2 mps 766 mmHg 72%
09:00 +33°C° 0 mm 3 mps 766 mmHg 63%
10:00 +35°C° 0 mm 4 mps 766 mmHg 55%
11:00 +35°C° 0.2 mm 4 mps 766 mmHg 51%
12:00 +36°C° 0.2 mm 4 mps 765 mmHg 48%
13:00 +37°C° 0.2 mm 5 mps 765 mmHg 44%
14:00 +36°C° 0.1 mm 4 mps 765 mmHg 46%
15:00 +36°C° 0.1 mm 4 mps 765 mmHg 48%
16:00 +35°C° 0.1 mm 4 mps 764 mmHg 49%
17:00 +34°C° 0.1 mm 3 mps 765 mmHg 58%
18:00 +31°C° 0.1 mm 3 mps 766 mmHg 68%
19:00 +29°C° 0.1 mm 2 mps 767 mmHg 77%
20:00 +28°C° 0 mm 2 mps 767 mmHg 80%
21:00 +28°C° 0 mm 2 mps 768 mmHg 82%
22:00 +27°C° 0 mm 1 mps 768 mmHg 85%
23:00 +27°C° 0 mm 1 mps 768 mmHg 86%

30 July, Friday

Time Temperature Precipitation Wind Pressure Humidity
00:00 +26°C° 0 mm 2 mps 767 mmHg 88%
01:00 +26°C° 0 mm 2 mps 767 mmHg 89%
02:00 +26°C° 0 mm 2 mps 767 mmHg 90%
03:00 +26°C° 0 mm 2 mps 767 mmHg 91%
04:00 +26°C° 0 mm 2 mps 767 mmHg 92%
05:00 +27°C° 0 mm 2 mps 767 mmHg 88%
06:00 +28°C° 0 mm 2 mps 767 mmHg 84%
07:00 +29°C° 0 mm 2 mps 767 mmHg 80%
08:00 +30°C° 0 mm 3 mps 767 mmHg 71%
09:00 +33°C° 0 mm 3 mps 767 mmHg 62%
10:00 +35°C° 0 mm 4 mps 767 mmHg 54%
11:00 +36°C° 0.4 mm 4 mps 767 mmHg 53%
12:00 +36°C° 0.4 mm 4 mps 766 mmHg 53%
13:00 +37°C° 0.4 mm 5 mps 766 mmHg 52%
14:00 +36°C° 0.4 mm 4 mps 766 mmHg 53%
15:00 +36°C° 0.4 mm 4 mps 766 mmHg 55%
16:00 +35°C° 0.4 mm 4 mps 766 mmHg 56%
17:00 +33°C° 0.2 mm 3 mps 766 mmHg 63%
18:00 +31°C° 0.2 mm 2 mps 767 mmHg 70%
19:00 +29°C° 0.2 mm 2 mps 767 mmHg 77%
20:00 +29°C° 0.1 mm 2 mps 768 mmHg 79%
21:00 +28°C° 0.1 mm 1 mps 768 mmHg 82%
22:00 +28°C° 0.1 mm 1 mps 768 mmHg 84%
23:00 +28°C° 0 mm 1 mps 768 mmHg 84%
Show more